User: anonymous   Login
Location: Mentone
(34.5413°N, 85.5351°W)
Time: 23:50:07
(UTC-05:00)
Language:

Cosmos 2150 Rocket - Orbit

View from above orbital plane
View from above orbital plane
View from above satellite
View from above satellite

Ground track
Ground track

The orbit data is extracted from the following two-line orbital elements,

1 21419U 91041B   15180.47728295  .00000004  00000-0  10760-4 0  9993
2 21419 074.0383 173.9601 0042401 276.2512 196.9516 14.33726902257465
Epoch (UTC): 29 June 2015 11:27:17
Eccentricity: 0.0042401
inclination: 74.0383°
perigee height: 749 km
apogee height: 809 km
right ascension of ascending node: 173.9601°
argument of perigee: 276.2512°
revolutions per day: 14.33726902
mean anomaly at epoch: 196.9516°
orbit number at epoch: 25746

The dashed part of the orbit path shows where the satellite is in the earth's shadow,  

DLR